2020-11-10 00:07:55 r, 20.36m,0000000001Hz,0000758422c,0000001.646s, 007.0C,00002191
2020-11-10 00:17:54 r, 20.18m,0000000001Hz,0000641953c,0000001.393s, 007.0C,00002191
2020-11-10 00:27:55 r, 19.89m,0000000001Hz,0000493362c,0000001.071s, 006.7C,00002191
2020-11-10 00:37:55 r, 20.02m,0000000000Hz,0000554018c,0000001.202s, 006.7C,00002191
2020-11-10 00:47:54 r, 19.70m,0000000001Hz,0000414911c,0000000.900s, 006.7C,00002191
2020-11-10 00:57:56 r, 19.82m,0000000001Hz,0000461768c,0000001.002s, 006.7C,00002191
2020-11-10 01:07:55 r, 19.75m,0000000001Hz,0000434989c,0000000.944s, 006.7C,00002191
2020-11-10 01:17:54 r, 19.85m,0000000001Hz,0000472403c,0000001.025s, 006.7C,00002191
2020-11-10 01:27:57 r, 19.91m,0000000001Hz,0000501019c,0000001.087s, 007.0C,00002191
2020-11-10 01:37:55 r, 20.20m,0000000000Hz,0000657532c,0000001.427s, 006.7C,00002191
2020-11-10 01:47:55 r, 20.72m,0000000001Hz,0001045438c,0000002.269s, 006.7C,00002191
2020-11-10 01:57:57 r, 20.74m,0000000000Hz,0001068361c,0000002.318s, 006.4C,00002191
2020-11-10 02:07:55 r, 20.74m,0000000001Hz,0001065190c,0000002.312s, 006.1C,00002191
2020-11-10 02:17:54 r, 20.75m,0000000000Hz,0001078816c,0000002.341s, 005.4C,00002191
2020-11-10 02:27:55 r, 20.72m,0000000001Hz,0001049956c,0000002.279s, 005.1C,00002191
2020-11-10 02:37:56 r, 20.70m,0000000000Hz,0001024041c,0000002.222s, 005.1C,00002191
2020-11-10 02:47:54 r, 20.68m,0000000001Hz,0001010786c,0000002.194s, 004.8C,00002191
2020-11-10 02:57:56 r, 20.67m,0000000000Hz,0001005827c,0000002.183s, 004.5C,00002191
2020-11-10 03:07:55 r, 20.67m,0000000001Hz,0001004854c,0000002.181s, 004.1C,00002191
2020-11-10 03:17:54 r, 20.64m,0000000001Hz,0000977902c,0000002.122s, 004.1C,00002191
2020-11-10 03:27:55 r, 20.62m,0000000001Hz,0000957930c,0000002.079s, 003.8C,00002191
2020-11-10 03:37:57 r, 20.59m,0000000001Hz,0000927638c,0000002.013s, 003.5C,00002191
2020-11-10 03:47:54 r, 20.55m,0000000001Hz,0000901045c,0000001.955s, 003.2C,00002191
2020-11-10 03:57:57 r, 20.53m,0000000000Hz,0000882233c,0000001.915s, 003.2C,00002191
2020-11-10 04:07:55 r, 20.52m,0000000001Hz,0000869492c,0000001.887s, 002.9C,00002191
2020-11-10 04:17:54 r, 20.50m,0000000001Hz,0000860806c,0000001.868s, 002.9C,00002191
2020-11-10 04:27:57 r, 20.49m,0000000000Hz,0000848406c,0000001.841s, 002.9C,00002191
2020-11-10 04:37:55 r, 20.45m,0000000001Hz,0000825297c,0000001.791s, 002.5C,00002191
2020-11-10 04:47:54 r, 20.45m,0000000001Hz,0000820150c,0000001.780s, 002.5C,00002191
2020-11-10 04:57:55 r, 20.44m,0000000001Hz,0000818501c,0000001.776s, 002.5C,00002191
2020-11-10 05:07:56 r, 20.45m,0000000000Hz,0000825604c,0000001.792s, 002.5C,00002191
2020-11-10 05:17:54 r, 20.44m,0000000001Hz,0000814780c,0000001.768s, 002.5C,00002191
2020-11-10 05:27:56 r, 20.40m,0000000001Hz,0000784173c,0000001.702s, 002.5C,00002191
2020-11-10 05:37:55 r, 20.33m,0000000000Hz,0000737567c,0000001.601s, 002.2C,00002191
2020-11-10 05:47:54 r, 20.22m,0000000001Hz,0000671714c,0000001.458s, 002.2C,00002191
2020-11-10 05:57:55 r, 20.18m,0000000001Hz,0000640003c,0000001.389s, 002.2C,00002191
2020-11-10 06:07:57 r, 20.00m,0000000001Hz,0000542468c,0000001.177s, 001.9C,00002191
2020-11-10 06:17:54 r, 19.58m,0000000002Hz,0000367823c,0000000.798s, 001.9C,00002191
2020-11-10 06:27:57 r, 18.66m,0000000003Hz,0000159529c,0000000.346s, 001.9C,00002191
2020-11-10 06:37:55 r, 17.33m,0000000010Hz,0000047005c,0000000.102s, 001.9C,00002191
2020-11-10 06:47:54 r, 15.62m,0000000047Hz,0000009674c,0000000.021s, 001.9C,00002191
2020-11-10 06:57:57 r, 13.62m,0000000303Hz,0000000000c,0000000.000s, 001.6C,00002191
2020-11-10 07:07:55 r, 11.60m,0000001940Hz,0000000000c,0000000.000s, 001.6C,00002191
2020-11-10 07:17:54 r, 09.76m,0000010573Hz,0000000000c,0000000.000s, 001.6C,00002191
2020-11-10 07:27:55 r, 08.36m,0000038512Hz,0000000000c,0000000.000s, 001.2C,00002191
2020-11-10 07:37:56 r, 07.41m,0000092006Hz,0000000000c,0000000.000s, 000.9C,00002191
2020-11-10 07:47:54 r, 06.79m,0000163470Hz,0000000000c,0000000.000s, 000.9C,00002191
2020-11-10 07:57:56 r, 06.34m,0000246572Hz,0000000000c,0000000.000s, 001.6C,00002191
2020-11-10 08:07:55 r, 06.04m,0000324554Hz,0000000000c,0000000.000s, 002.2C,00002191
2020-11-10 08:17:54 r, 00.00m,0000429384Hz,0000000000c,0000000.000s, 002.9C,00002191
2020-11-10 08:27:55 r, 00.00m,0000499099Hz,0000000000c,0000000.000s, 003.8C,00002191
2020-11-10 08:37:57 r, 00.00m,0000572257Hz,0000000000c,0000000.000s, 005.1C,00002191
2020-11-10 08:47:54 r, 00.00m,0000598616Hz,0000000000c,0000000.000s, 006.1C,00002191
2020-11-10 08:57:57 r, 00.00m,0000598398Hz,0000000000c,0000000.000s, 006.7C,00002191
2020-11-10 09:07:55 r, 00.00m,0000598391Hz,0000000000c,0000000.000s, 007.4C,00002191
2020-11-10 09:17:54 r, 00.00m,0000598337Hz,0000000000c,0000000.000s, 008.0C,00002191
2020-11-10 09:27:57 r, 00.00m,0000598340Hz,0000000000c,0000000.000s, 008.3C,00002191
2020-11-10 09:37:55 r, 00.00m,0000598286Hz,0000000000c,0000000.000s, 008.7C,00002191
2020-11-10 09:47:54 r, 00.00m,0000598312Hz,0000000000c,0000000.000s, 008.7C,00002191
2020-11-10 09:57:55 r, 00.00m,0000598201Hz,0000000000c,0000000.000s, 009.0C,00002191
2020-11-10 10:07:57 r, 00.00m,0000598192Hz,0000000000c,0000000.000s, 009.0C,00002191
2020-11-10 10:17:54 r, 00.00m,0000598306Hz,0000000000c,0000000.000s, 009.6C,00002191
2020-11-10 10:27:56 r, 00.00m,0000598086Hz,0000000000c,0000000.000s, 010.3C,00002191
2020-11-10 10:37:55 r, 00.00m,0000598046Hz,0000000000c,0000000.000s, 010.9C,00002191
2020-11-10 10:47:54 r, 00.00m,0000597970Hz,0000000000c,0000000.000s, 010.9C,00002191
2020-11-10 10:57:57 r, 00.00m,0000598033Hz,0000000000c,0000000.000s, 010.6C,00002191
2020-11-10 11:07:55 r, 00.00m,0000598105Hz,0000000000c,0000000.000s, 010.9C,00002191
2020-11-10 11:17:54 r, 00.00m,0000598090Hz,0000000000c,0000000.000s, 011.6C,00002191
2020-11-10 11:27:54 r, 00.00m,0000597883Hz,0000000000c,0000000.000s, 012.5C,00002191
2020-11-10 11:37:55 r, 00.00m,0000597878Hz,0000000000c,0000000.000s, 012.8C,00002191
2020-11-10 11:47:54 r, 00.00m,0000597886Hz,0000000000c,0000000.000s, 012.5C,00002191
2020-11-10 11:57:54 r, 00.00m,0000597860Hz,0000000000c,0000000.000s, 013.5C,00002191
2020-11-10 12:07:56 r, 00.00m,0000597779Hz,0000000000c,0000000.000s, 014.8C,00002191
2020-11-10 12:17:54 r, 00.00m,0000597766Hz,0000000000c,0000000.000s, 014.1C,00002191
2020-11-10 12:27:54 r, 00.00m,0000598008Hz,0000000000c,0000000.000s, 011.9C,00002191
2020-11-10 12:37:57 r, 00.00m,0000598096Hz,0000000000c,0000000.000s, 010.3C,00002191
2020-11-10 12:47:54 r, 00.00m,0000598232Hz,0000000000c,0000000.000s, 009.6C,00002191
2020-11-10 12:57:54 r, 00.00m,0000598196Hz,0000000000c,0000000.000s, 009.0C,00002191
2020-11-10 13:07:57 r, 00.00m,0000598358Hz,0000000000c,0000000.000s, 009.0C,00002191
2020-11-10 13:17:54 r, 00.00m,0000598326Hz,0000000000c,0000000.000s, 009.0C,00002191
2020-11-10 13:27:54 r, 00.00m,0000598308Hz,0000000000c,0000000.000s, 009.0C,00002191
2020-11-10 13:37:55 r, 00.00m,0000598352Hz,0000000000c,0000000.000s, 009.0C,00002191
2020-11-10 13:47:54 r, 00.00m,0000598343Hz,0000000000c,0000000.000s, 009.0C,00002191
2020-11-10 13:57:54 r, 00.00m,0000598376Hz,0000000000c,0000000.000s, 009.3C,00002191
2020-11-10 14:07:55 r, 00.00m,0000598276Hz,0000000000c,0000000.000s, 009.9C,00002191
2020-11-10 14:17:54 r, 00.00m,0000598285Hz,0000000000c,0000000.000s, 009.9C,00002191
2020-11-10 14:27:54 r, 00.00m,0000598089Hz,0000000000c,0000000.000s, 010.3C,00002191
2020-11-10 14:37:56 r, 00.00m,0000598242Hz,0000000000c,0000000.000s, 009.9C,00002191
2020-11-10 14:47:54 r, 00.00m,0000598217Hz,0000000000c,0000000.000s, 009.9C,00002191
2020-11-10 14:57:54 r, 00.00m,0000598313Hz,0000000000c,0000000.000s, 010.6C,00002191
2020-11-10 15:07:57 r, 00.00m,0000598181Hz,0000000000c,0000000.000s, 011.2C,00002191
2020-11-10 15:17:55 r, 00.00m,0000598101Hz,0000000000c,0000000.000s, 011.9C,00002191
2020-11-10 15:27:54 r, 00.00m,0000598141Hz,0000000000c,0000000.000s, 012.2C,00002191
2020-11-10 15:37:57 r, 00.00m,0000598066Hz,0000000000c,0000000.000s, 012.5C,00002191
2020-11-10 15:47:55 r, 00.00m,0000548452Hz,0000000000c,0000000.000s, 012.5C,00002191
2020-11-10 15:57:54 r, 00.00m,0000482976Hz,0000000000c,0000000.000s, 012.5C,00002191
2020-11-10 16:07:55 r, 00.00m,0000404804Hz,0000000000c,0000000.000s, 012.2C,00002191
2020-11-10 16:17:55 r, 06.04m,0000323701Hz,0000000000c,0000000.000s, 011.9C,00002191
2020-11-10 16:27:54 r, 06.37m,0000238185Hz,0000000000c,0000000.000s, 011.9C,00002191
2020-11-10 16:37:56 r, 06.85m,0000154002Hz,0000000000c,0000000.000s, 011.2C,00002191
2020-11-10 16:47:55 r, 07.53m,0000081933Hz,0000000000c,0000000.000s, 010.6C,00002191
2020-11-10 16:57:54 r, 08.53m,0000032676Hz,0000000000c,0000000.000s, 009.3C,00002191
2020-11-10 17:07:57 r, 10.02m,0000008345Hz,0000000000c,0000000.000s, 008.3C,00002191
2020-11-10 17:17:55 r, 11.91m,0000001460Hz,0000000000c,0000000.000s, 007.4C,00002191
2020-11-10 17:27:54 r, 13.91m,0000000230Hz,0000000000c,0000000.000s, 006.7C,00002191
2020-11-10 17:37:57 r, 15.89m,0000000037Hz,0000012447c,0000000.027s, 006.1C,00002191
2020-11-10 17:47:55 r, 17.58m,0000000007Hz,0000058760c,0000000.128s, 005.8C,00002191
2020-11-10 17:57:54 r, 19.01m,0000000002Hz,0000220771c,0000000.479s, 005.4C,00002191
2020-11-10 18:07:55 r, 20.06m,0000000001Hz,0000574798c,0000001.247s, 005.1C,00002191
2020-11-10 18:17:56 r, 20.55m,0000000000Hz,0000909114c,0000001.973s, 005.1C,00002191
2020-11-10 18:27:54 r, 20.72m,0000000001Hz,0001046190c,0000002.270s, 005.1C,00002191
2020-11-10 18:37:56 r, 20.76m,0000000001Hz,0001091601c,0000002.369s, 004.8C,00002191
2020-11-10 18:47:55 r, 20.78m,0000000001Hz,0001107671c,0000002.404s, 004.8C,00002191
2020-11-10 18:57:54 r, 20.79m,0000000001Hz,0001115478c,0000002.421s, 004.8C,00002191
2020-11-10 19:07:55 r, 20.79m,0000000000Hz,0001120064c,0000002.431s, 004.8C,00002191
2020-11-10 19:17:57 r, 20.79m,0000000001Hz,0001122580c,0000002.436s, 004.5C,00002191
2020-11-10 19:27:54 r, 20.79m,0000000000Hz,0001127544c,0000002.447s, 004.5C,00002191
2020-11-10 19:37:57 r, 20.79m,0000000000Hz,0001130352c,0000002.453s, 003.8C,00002191
2020-11-10 19:47:55 r, 20.80m,0000000000Hz,0001135627c,0000002.464s, 003.5C,00002191
2020-11-10 19:57:54 r, 20.81m,0000000001Hz,0001140447c,0000002.475s, 003.5C,00002191
2020-11-10 20:07:57 r, 20.82m,0000000000Hz,0001148124c,0000002.492s, 003.2C,00002191
2020-11-10 20:17:55 r, 20.82m,0000000001Hz,0001151654c,0000002.499s, 003.2C,00002191
2020-11-10 20:27:54 r, 20.82m,0000000001Hz,0001154986c,0000002.506s, 002.9C,00002191
2020-11-10 20:37:55 r, 20.83m,0000000001Hz,0001163924c,0000002.526s, 002.9C,00002191
2020-11-10 20:47:56 r, 20.83m,0000000000Hz,0001168805c,0000002.536s, 002.9C,00002191
2020-11-10 20:57:54 r, 20.83m,0000000000Hz,0001164005c,0000002.526s, 002.9C,00002191
2020-11-10 21:07:56 r, 20.83m,0000000000Hz,0001166709c,0000002.532s, 002.9C,00002191
2020-11-10 21:17:55 r, 20.84m,0000000000Hz,0001172674c,0000002.545s, 002.9C,00002191
2020-11-10 21:27:54 r, 20.84m,0000000001Hz,0001178151c,0000002.557s, 002.5C,00002191
2020-11-10 21:37:55 r, 20.85m,0000000001Hz,0001180728c,0000002.562s, 002.9C,00002191
2020-11-10 21:47:57 r, 20.85m,0000000000Hz,0001194112c,0000002.591s, 002.9C,00002191
2020-11-10 21:57:54 r, 20.86m,0000000000Hz,0001200581c,0000002.605s, 002.9C,00002191
2020-11-10 22:07:57 r, 20.87m,0000000000Hz,0001209726c,0000002.625s, 002.5C,00002191
2020-11-10 22:17:55 r, 20.86m,0000000001Hz,0001202061c,0000002.609s, 002.5C,00002191
2020-11-10 22:27:54 r, 20.86m,0000000001Hz,0001198310c,0000002.600s, 002.5C,00002191
2020-11-10 22:37:57 r, 20.88m,0000000001Hz,0001215567c,0000002.638s, 002.5C,00002191
2020-11-10 22:47:55 r, 20.88m,0000000000Hz,0001220742c,0000002.649s, 002.5C,00002191
2020-11-10 22:57:54 r, 20.88m,0000000000Hz,0001228655c,0000002.666s, 002.5C,00002191
2020-11-10 23:07:55 r, 20.89m,0000000001Hz,0001231379c,0000002.672s, 002.5C,00002191
2020-11-10 23:17:56 r, 20.88m,0000000000Hz,0001224992c,0000002.658s, 002.5C,00002191
2020-11-10 23:27:54 r, 20.88m,0000000001Hz,0001220142c,0000002.648s, 002.9C,00002191
2020-11-10 23:37:56 r, 20.88m,0000000001Hz,0001225949c,0000002.660s, 002.9C,00002191
2020-11-10 23:47:55 r, 20.88m,0000000000Hz,0001221869c,0000002.652s, 002.9C,00002191
2020-11-10 23:57:54 r, 20.88m,0000000000Hz,0001223801c,0000002.656s, 002.9C,00002191
